Home   Weather   Redmond   Past weeks

Flag for USA Past Weather in Redmond, Washington, USA — Yesterday and Last 2 Weeks

Now
81 °F

Sunny.


Feels Like: 80 °F
Forecast: 57 / 84 °F
Wind: 7 mph from Northwest

Location: Seattle Boeing Field

Current Time: May 27, 2017 at 7:50:15 pm

Latest Report: May 27, 2017 at 6:53 pm


Visibility: 10 mi

Pressure: 30.02 "Hg

Humidity: 34%

Dew Point: 50 °F

Location of RedmondLocation

Past Weather in Redmond — Graph

°F

Redmond Temperature Yesterday

Maximum temperature yesterday: 79 °F (at 5:53 pm)
Minimum temperature yesterday: 53 °F (at 5:53 am)
Average temperature yesterday: 67 °F

High & Low Weather Summary for the Past Weeks

 TemperatureHumidityPressure
High84 °F (May 27, 4:53 pm)100% (May 15, 8:53 pm)30.24 "Hg (May 15, 8:53 pm)
Low45 °F (May 16, 10:53 am)30% (May 26, 5:53 pm)29.58 "Hg (May 16, 5:53 am)
Average59 °F71%30.02 "Hg
* Reported May 12 5:53 pm — May 27 5:53 pm, Redmond. Weather by CustomWeather, © 2017

Note: Actual official high and low records may vary slightly from our data, if they occured in-between our weather recording intervals... More about our weather records

Advertising

Redmond Weather History for the Previous 24 Hours

Scroll right to see more
 ConditionsComfort  
Time TempWeatherWind HumidityBarometerVisibility
5:53 pm
Sat, May 27
82 °FSunny.8 mph35%30.03 "Hg10 mi
4:53 pm84 °FSunny.6 mph33%30.03 "Hg10 mi
3:53 pm83 °FSunny.8 mph33%30.04 "Hg10 mi
2:53 pm80 °FSunny.8 mph35%30.06 "Hg10 mi
1:53 pm78 °FSunny.6 mph39%30.07 "Hg10 mi
12:53 pm76 °FSunny.6 mph42%30.08 "Hg10 mi
11:53 am73 °FPassing clouds.7 mph48%30.09 "Hg10 mi
10:53 am71 °FSunny.6 mph49%30.09 "Hg10 mi
9:53 am69 °FPassing clouds.5 mph59%30.09 "Hg10 mi
8:53 am66 °FSunny.No wind63%30.08 "Hg10 mi
7:53 am62 °FPassing clouds.No wind75%30.08 "Hg10 mi
6:53 am59 °FSunny.No wind78%30.06 "Hg10 mi
5:53 am56 °FSunny.No wind87%30.05 "Hg10 mi
4:53 am56 °FClear.No wind81%30.04 "Hg10 mi
3:53 am59 °FClear.No wind72%30.04 "Hg10 mi
2:53 am60 °FClear.No wind69%30.03 "Hg10 mi
1:53 am62 °FClear.No wind62%30.03 "Hg10 mi
12:53 am65 °FClear.No wind56%30.02 "Hg10 mi
11:53 pm
Fri, May 26
67 °FClear.No wind51%30.01 "Hg10 mi
10:53 pm69 °FClear.3 mph44%30.00 "Hg10 mi
9:53 pm70 °FClear.3 mph44%29.98 "Hg10 mi
8:53 pm72 °FPassing clouds.5 mph44%29.96 "Hg10 mi
7:53 pm76 °FPassing clouds.6 mph37%29.95 "Hg10 mi
Weather by CustomWeather, © 2017

See weather overviewHow to use our weather pages